This is the latest recevied weather packets stored in our database for station/object W4JCW. If no packets are shown the sender has not sent any weather packets the latest 10 day(s).
| Time | Temp. | Humidity | Pressure | Rain* | Wind** | Luminosity | Snow |
|---|---|---|---|---|---|---|---|
| 1777913406 | 24.44° C | 34% | 1015.3 hPa | 0 mm | - | 306 W/m² | - |
| 1777913103 | 24.44° C | 35% | 1015.3 hPa | 0 mm | - | 131 W/m² | - |
| 1777912799 | 24.44° C | 34% | 1015.4 hPa | 0 mm | - | 151 W/m² | - |
| 1777912495 | 24.44° C | 36% | 1015.5 hPa | 0 mm | - | 79 W/m² | - |
| 1777912192 | 24.44° C | 36% | 1015.7 hPa | 0 mm | - | 218 W/m² | - |
| 1777911888 | 24.44° C | 36% | 1015.6 hPa | 0 mm | - | 93 W/m² | - |
| 1777911585 | 24.44° C | 37% | 1015.5 hPa | 0 mm | - | 114 W/m² | - |
| 1777911281 | 23.89° C | 36% | 1015.7 hPa | 0 mm | - | 417 W/m² | - |
| 1777910978 | 23.89° C | 35% | 1015.7 hPa | 0 mm | - | 952 W/m² | - |
| 1777910676 | 23.89° C | 39% | 1015.8 hPa | 0 mm | - | 940 W/m² | - |
| 1777910372 | 23.33° C | 37% | 1016 hPa | 0 mm | - | 940 W/m² | - |
| 1777910069 | 23.33° C | 37% | 1015.8 hPa | 0 mm | - | 932 W/m² | - |
| 1777909767 | 23.33° C | 38% | 1016 hPa | 0 mm | - | 925 W/m² | - |
| 1777909463 | 22.78° C | 39% | 1016 hPa | 0 mm | - | 918 W/m² | - |
| 1777909161 | 22.78° C | 39% | 1016 hPa | 0 mm | - | 907 W/m² | - |
| 1777908859 | 22.78° C | 39% | 1016.2 hPa | 0 mm | - | 892 W/m² | - |
| 1777908555 | 22.78° C | 40% | 1016.1 hPa | 0 mm | - | 881 W/m² | - |
| 1777908253 | 22.78° C | 44% | 1016.2 hPa | 0 mm | - | 870 W/m² | - |
| 1777907949 | 22.22° C | 43% | 1016.3 hPa | 0 mm | - | 859 W/m² | - |
| 1777907644 | 22.22° C | 43% | 1016.3 hPa | 0 mm | - | 845 W/m² | - |
| 1777907340 | 21.67° C | 44% | 1016.2 hPa | 0 mm | - | 839 W/m² | - |
| 1777907036 | 21.11° C | 43% | 1016.5 hPa | 0 mm | - | 366 W/m² | - |
| 1777906734 | 21.11° C | 45% | 1016.3 hPa | 0 mm | - | 68 W/m² | - |
| 1777906430 | 20.56° C | 46% | 1016.7 hPa | 0 mm | - | 66 W/m² | - |
| 1777906127 | 20.56° C | 46% | 1016.5 hPa | 0 mm | - | 79 W/m² | - |
* Rain latest hour (hover to see other rain measurements)
** Current wind speed in m/s (hover to see current wind gust speed)